[[{"header":{"parameterUnit":"m.s-1","parameterCategory":1,"la1":30.2991,"la2":30.254,"lo1":-89.0895,"lo2":-89.0444,"dy":0.0017,"dx":0.0017,"nx":28,"ny":28,"refTime":"2023-07-21T21:00:00:Z","depth":0,"parameterNumber":2,"parameterNumberName":"U-component_of_WINDS"},"data":[0,0,0,0,0,0,0,0,0,0,0,0,0,0,0,0,0,0,0,0,0,0,0,0,0,0,0,0,0,0,0,0,0,0,0,0,0,0,0,0,0,0,0,0,0,0,0,0,0,0,0,0,0,0,0,0,0,0,3.2747,3.2749,0,3.2947,3.2949,3.2951,3.2989,3.2988,3.2986,3.2985,3.319,3.3197,3.3204,0,0,0,0,0,0,0,0,0,0,0,0,0,3.24,3.2407,3.2747,3.275,3.2752,3.2947,3.2949,3.2952,3.299,3.2988,3.2986,3.2984,3.3188,3.3196,3.3205,0,0,0,0,0,0,0,0,0,0,0,0,0,3.2571,3.2409,3.2747,3.2794,3.2801,3.2946,3.2949,3.2953,3.299,3.2988,3.2985,3.2983,3.3185,3.3195,3.3206,3.3318,0,0,3.3238,3.3242,0,0,0,0,0,0,0,0,3.2561,3.2583,3.2785,3.2791,3.2799,3.2941,3.2902,3.3075,3.2991,3.2918,3.2985,3.2982,3.3109,3.3126,3.3169,3.3328,3.3336,3.3238,3.3245,3.3249,3.3252,0,0,0,0,0,0,0,3.2549,3.2575,3.2826,3.2788,3.2796,3.2806,3.2828,3.2935,3.3025,3.2924,3.2928,3.2951,3.3113,3.3158,3.3174,3.3339,3.3238,3.3247,3.3254,3.3258,3.3603,3.3605,0,0,0,0,0,0,3.2529,3.2565,3.282,3.2832,3.2671,3.2815,3.2839,3.2898,3.3024,3.3041,3.2952,3.2952,3.3142,3.3161,3.3181,3.3322,3.3249,3.3259,3.3265,3.36,3.3603,3.3606,0,0,0,0,0,0,3.2521,3.2551,3.2812,3.27,3.2733,3.2823,3.2889,3.2903,3.2949,3.3045,3.3061,3.2983,3.3141,3.3166,3.3284,3.3329,3.3264,3.3273,3.3596,3.3601,3.3605,3.3603,0,0,0,0,0,0,3.2511,3.2548,3.2591,3.27,3.2739,3.291,3.2892,3.2908,3.2966,3.2967,3.3078,3.3094,3.3141,3.3268,3.3294,3.3342,3.3281,3.3593,3.3598,3.3603,3.3599,3.3607,3.3613,0,0,0,0,0,3.2498,3.2582,3.2593,3.2623,3.2795,3.2913,3.2935,3.2988,3.297,3.3014,3.3076,3.309,3.332,3.328,3.331,3.3362,3.359,3.3597,3.3603,3.3596,3.3605,3.3613,0,0,0,0,0,0,3.2475,3.2597,3.261,3.2732,3.2812,3.2919,3.2976,3.2995,3.3082,3.3079,3.3141,3.3166,3.328,3.3333,3.3286,3.3478,3.3454,3.3467,3.3439,3.3448,3.3455,3.344,3.329,0,0,0,0,0,3.2485,3.257,3.2672,3.277,3.2809,3.2886,3.2939,3.2973,3.3058,3.3092,3.3163,3.3246,3.3337,3.3396,3.3485,3.3608,3.3633,3.3658,3.3665,3.367,3.368,3.3751,3.3763,3.3628,3.3628,3.3628,0,0,3.2504,3.2581,3.2631,3.2767,3.2833,3.2921,3.2914,3.3007,3.3073,3.3107,3.3222,3.3277,3.3374,3.3495,3.3551,3.3542,3.3724,3.3678,3.3682,3.3689,3.3759,3.3771,3.3783,3.3632,3.3631,3.3631,0,0,3.2585,3.2651,3.2741,3.2807,3.2907,3.2958,3.298,3.3085,3.3123,3.324,3.3267,3.3347,3.3502,3.3571,3.3625,3.3734,3.3751,3.3762,3.3797,3.3865,3.3876,3.3885,3.3925,3.3938,3.3772,3.3772,3.3772,0,3.2596,3.2729,3.2784,3.2877,3.2936,3.2971,3.3062,3.3124,3.3248,3.3289,3.3277,3.3474,3.3541,3.3679,3.3706,3.3749,3.3776,3.3749,3.387,3.388,3.389,3.3928,3.3943,3.3773,3.3772,3.3772,3.3772,0,3.2739,3.2831,3.2892,3.3011,3.3077,3.3168,3.3238,3.3299,3.3327,3.3379,3.3499,3.3581,3.3688,3.3724,3.3752,3.3867,3.3858,3.3857,3.3834,3.3903,3.394,3.3955,3.3774,3.3773,3.3773,3.3773,0,0,3.2809,3.2959,3.298,3.3036,3.315,3.3222,3.3316,3.3421,3.3472,3.3557,3.3638,3.377,3.377,3.3832,3.3869,3.3929,3.4011,3.3921,3.3924,3.3935,3.4143,3.4143,3.4159,3.4023,3.4026,3.4028,3.4135,0,3.2904,3.3072,3.3125,3.3265,3.3352,3.3387,3.3469,3.3548,3.3601,3.3682,3.374,3.3833,3.3826,3.3864,3.3924,3.3988,3.4053,3.3981,3.4099,3.4102,3.4073,3.4179,3.4179,3.4276,3.415,3.4153,3.4155,0,3.3036,3.3124,3.3273,3.3378,3.3416,3.3488,3.359,3.3667,3.3759,3.3792,3.3863,3.3895,3.3996,3.3968,3.4108,3.4057,3.4109,3.4148,3.4153,3.4166,3.4132,3.4194,3.4308,3.4322,3.4178,3.4176,3.4174,0,3.3072,3.3228,3.3338,3.3384,3.3509,3.3559,3.3614,3.3703,3.3763,3.3852,3.3892,3.3991,3.4046,3.4122,3.4181,3.4155,3.4316,3.4293,3.4348,3.4346,3.438,3.4377,3.4503,3.4413,3.4413,3.4412,3.4412,0,3.3172,3.3262,3.3356,3.3424,3.3526,3.3587,3.3687,3.3743,3.3823,3.3903,3.394,3.4014,3.4087,3.4171,3.4218,3.4327,3.4352,3.4382,3.4394,3.4379,3.4375,3.4414,3.4409,3.4416,3.4415,3.4415,3.4414,0,3.323,3.3297,3.3419,3.3528,3.3557,3.3628,3.3722,3.3789,3.3843,3.3944,3.3971,3.4056,3.4158,3.4224,3.4353,3.4385,3.4504,3.4514,3.4473,3.4479,3.453,3.4525,3.4686,3.471,3.4603,3.4604,3.4605,0,3.3289,3.3359,3.3476,3.3532,3.3587,3.3677,3.3739,3.3803,3.3866,3.3976,3.4031,3.4135,3.4221,3.4381,3.4455,3.4555,3.4567,3.4617,3.4582,3.4566,3.4569,3.4564,3.4572,3.4622,3.4623,3.4624,3.4624,0,3.3387,3.3417,3.3505,3.3606,3.3679,3.3761,3.3843,3.3887,3.3964,3.4034,3.4138,3.4205,3.4338,3.444,3.4547,3.4604,3.4628,3.4635,3.4653,3.4639,3.4612,3.4628,3.4489,3.4631,3.463,3.4629,3.4629,3.4629,3.3448,3.3513,3.3606,3.3703,3.3772,3.3848,3.3917,3.3981,3.4069,3.4181,3.4214,3.4323,3.4414,3.456,3.4619,3.4706,3.47,3.4726,3.4733,3.4738,3.4739,3.4599,3.4725,3.4725,3.4725,3.4725,3.4725,0,3.3549,3.3611,3.37,3.3814,3.3891,3.3907,3.3999,3.4062,3.4158,3.4241,3.4326,3.4446,3.4547,3.4629,3.4733,3.4787,3.4801,3.4812,3.4809,3.4822,3.4738,3.4712,3.48,3.48,3.48,3.48,3.48,3.48,3.361,3.3721,3.3762,3.3908,3.397,3.4077,3.4128,3.4199,3.4267,3.4399,3.4483,3.4537,3.462,3.4731,3.4825,3.4846,3.4883,3.4893,3.4917,3.4836,3.4828,3.482,3.4796,3.49,3.49,3.4994,3.4995,3.4996]},{"header":{"parameterUnit":"m.s-1","parameterCategory":1,"la1":30.2991,"la2":30.254,"lo1":-89.0895,"lo2":-89.0444,"dy":0.0017,"dx":0.0017,"nx":28,"ny":28,"refTime":"2023-07-21T21:00:00:Z","depth":0,"parameterNumber":3,"parameterNumberName":"V-component_of_WINDS"},"data":[0,0,0,0,0,0,0,0,0,0,0,0,0,0,0,0,0,0,0,0,0,0,0,0,0,0,0,0,0,0,0,0,0,0,0,0,0,0,0,0,0,0,0,0,0,0,0,0,0,0,0,0,0,0,0,0,0,0,6.2962,6.2964,0,6.3147,6.3149,6.3151,6.3151,6.3148,6.3146,6.3144,6.3325,6.3331,6.3338,0,0,0,0,0,0,0,0,0,0,0,0,0,6.26,6.2607,6.2962,6.2964,6.2966,6.3146,6.3149,6.3151,6.3151,6.3148,6.3145,6.3143,6.3322,6.333,6.3339,0,0,0,0,0,0,0,0,0,0,0,0,0,6.2768,6.2609,6.2961,6.2988,6.2992,6.3146,6.3149,6.3152,6.3152,6.3148,6.3145,6.3141,6.3319,6.333,6.334,6.3476,0,0,6.3372,6.3377,0,0,0,0,0,0,0,0,6.2759,6.2781,6.2982,6.2987,6.2992,6.3122,6.3088,6.326,6.3153,6.3091,6.3144,6.314,6.3259,6.3275,6.3317,6.3485,6.3493,6.3373,6.338,6.3384,6.3387,0,0,0,0,0,0,0,6.2747,6.2773,6.3034,6.2985,6.2991,6.2988,6.3008,6.312,6.3193,6.3096,6.3097,6.3119,6.3261,6.3307,6.3321,6.3495,6.3373,6.3382,6.3389,6.3393,6.3784,6.3788,0,0,0,0,0,0,6.2731,6.2764,6.3029,6.304,6.2864,6.2998,6.302,6.3084,6.3192,6.3205,6.3122,6.3118,6.3291,6.3309,6.3328,6.3495,6.3384,6.3394,6.34,6.378,6.3785,6.379,0,0,0,0,0,0,6.2723,6.2755,6.3021,6.2902,6.2936,6.3008,6.3079,6.3089,6.3135,6.3211,6.3223,6.3156,6.3288,6.3313,6.344,6.3501,6.3399,6.3408,6.3775,6.3782,6.3787,6.383,0,0,0,0,0,0,6.2713,6.2752,6.2806,6.2904,6.2942,6.3133,6.3083,6.3095,6.3154,6.3151,6.3246,6.3258,6.3288,6.3424,6.3451,6.3514,6.3417,6.377,6.3778,6.3785,6.3824,6.3837,6.3848,0,0,0,0,0,6.27,6.2809,6.2809,6.2841,6.3012,6.3137,6.3159,6.3193,6.3159,6.3213,6.3262,6.3255,6.349,6.3437,6.3467,6.3534,6.3767,6.3776,6.3785,6.3818,6.3834,6.3848,0,0,0,0,0,0,6.2714,6.2822,6.2824,6.2968,6.3044,6.3137,6.3206,6.3209,6.3294,6.3287,6.3323,6.3344,6.3472,6.3515,6.3455,6.3672,6.3624,6.3639,6.3639,6.3655,6.3667,6.3654,6.3425,0,0,0,0,0,6.2734,6.2829,6.2917,6.3036,6.3074,6.3134,6.3189,6.3209,6.3288,6.3319,6.3377,6.3451,6.3542,6.3601,6.3688,6.383,6.385,6.389,6.3903,6.3912,6.3925,6.4004,6.4023,6.382,6.382,6.3819,0,0,6.2776,6.2847,6.2904,6.3041,6.3102,6.3197,6.316,6.3262,6.3332,6.3333,6.3459,6.3504,6.3588,6.3724,6.3786,6.3764,6.3986,6.3924,6.3931,6.3939,6.4015,6.4034,6.4051,6.3826,6.3825,6.3824,0,0,6.2902,6.2965,6.3072,6.3135,6.3229,6.3268,6.3293,6.3386,6.3417,6.3544,6.3547,6.3629,6.3784,6.3845,6.3896,6.4046,6.4042,6.4073,6.4138,6.4213,6.4229,6.4244,6.4297,6.4316,6.4085,6.4085,6.4086,0,6.2942,6.3088,6.3125,6.3229,6.3288,6.3296,6.3403,6.3461,6.3577,6.3617,6.3591,6.3787,6.3845,6.3995,6.4031,6.4072,6.4101,6.4062,6.4225,6.4239,6.4253,6.4304,6.4324,6.4089,6.4088,6.4088,6.4088,0,6.3132,6.3233,6.3307,6.3424,6.3491,6.3595,6.3646,6.3709,6.3723,6.3764,6.3892,6.3962,6.4064,6.4101,6.4114,6.4253,6.4237,6.4217,6.417,6.4275,6.4324,6.4344,6.4093,6.4092,6.4091,6.409,0,0,6.3271,6.3408,6.3435,6.3488,6.3593,6.367,6.3774,6.3877,6.393,6.401,6.4097,6.4229,6.4212,6.427,6.429,6.4357,6.4471,6.4329,6.4332,6.4354,6.4628,6.4642,6.4664,6.4469,6.4473,6.4476,6.4621,0,6.3409,6.3598,6.3634,6.3797,6.389,6.3899,6.399,6.4062,6.4103,6.4186,6.4229,6.4323,6.4294,6.4329,6.4395,6.4443,6.4526,6.4433,6.4549,6.4553,6.4528,6.469,6.4705,6.4839,6.464,6.4643,6.4645,0,6.3594,6.3682,6.3855,6.3949,6.3989,6.407,6.4168,6.4248,6.4329,6.4354,6.442,6.4433,6.4538,6.4486,6.4631,6.4567,6.4616,6.4647,6.4653,6.4665,6.4606,6.4707,6.4882,6.4902,6.4676,6.4673,6.4671,0,6.3679,6.3841,6.3966,6.401,6.4122,6.4179,6.4227,6.4305,6.4365,6.4449,6.4488,6.4582,6.4633,6.4704,6.4742,6.47,6.4884,6.4835,6.4907,6.4906,6.4945,6.4943,6.5131,6.4976,6.4976,6.4976,6.4975,0,6.3829,6.3934,6.4006,6.4082,6.42,6.424,6.4355,6.4402,6.4472,6.4556,6.4568,6.4646,6.469,6.4774,6.4803,6.4919,6.4942,6.4963,6.497,6.4963,6.496,6.4996,6.4988,6.4981,6.498,6.4979,6.4978,0,6.3944,6.3996,6.4133,6.4228,6.4255,6.4337,6.4417,6.4491,6.4532,6.4638,6.4665,6.4728,6.4828,6.4872,6.4993,6.5013,6.5146,6.5145,6.512,6.5122,6.5191,6.5185,6.541,6.5442,6.5265,6.5267,6.5268,0,6.4037,6.4119,6.4224,6.4283,6.4334,6.4428,6.449,6.4532,6.4595,6.4695,6.4756,6.4857,6.4939,6.5097,6.5152,6.5245,6.5247,6.532,6.5261,6.5252,6.5249,6.5244,6.5252,6.533,6.5332,6.5334,6.5335,0,6.4196,6.4218,6.4309,6.4409,6.4483,6.4563,6.4641,6.4687,6.4741,6.4811,6.4915,6.4979,6.5105,6.5204,6.5301,6.5347,6.535,6.5353,6.5375,6.5368,6.5351,6.5362,6.5149,6.5348,6.5346,6.5345,6.5345,6.5344,6.4303,6.4377,6.4463,6.4563,6.4627,6.47,6.4774,6.4826,6.4914,6.5022,6.504,6.515,6.5229,6.536,6.541,6.5495,6.5477,6.5508,6.5516,6.5523,6.5528,6.5337,6.5512,6.5512,6.5512,6.5511,6.5511,0,6.4463,6.452,6.4612,6.4723,6.4801,6.48,6.4886,6.4951,6.5049,6.5124,6.5206,6.5324,6.5421,6.5484,6.5581,6.5637,6.564,6.5661,6.5657,6.5668,6.5538,6.551,6.5656,6.5656,6.5656,6.5656,6.5656,6.5656,6.4556,6.4681,6.4713,6.4869,6.4924,6.5035,6.5084,6.5151,6.5211,6.5344,6.5426,6.5467,6.5537,6.5639,6.5727,6.5743,6.5778,6.5799,6.5814,6.5692,6.5677,6.5662,6.5636,6.5807,6.5807,6.5937,6.5938,6.5939]}]]